RH
28 26 13 10 14 20 18 20 24 29 29 32 38 42 34 12 13 26 21 40 80 66 89 85 89 68 22 14 11 15 19 16 11 9 8 6 8 27 35 37 27 27 32 39 40
29 29 18 12 20 22 20 22 29 31 36 42 50 49 50 30 34 29 34 49 87 64 98 90 99 81 29 18 17 21 19 13 11 9 8 6 6 21 27 26 29 23 25 36 29
32 33 25 15 18 20 22 26 31 38 48 46 49 61 44 48 49 31 40 43 81 63 99 99 98 90 44 21 21 30 28 16 13 9 7 6 8 24 24 27 26 20 20 24 18
34 34 21 18 20 23 24 30 31 48 65 56 63 58 62 66 62 42 46 49 84 70 98 78 93 92 50 28 29 45 28 18 15 10 8 10 15 28 34 26 22 23 25 18 16
36 33 28 20 24 29 32 36 39 50 72 64 70 73 70 74 66 63 51 49 83 72 96 100 98 93 48 34 35 44 40 24 17 18 14 26 30 32 31 24 20 24 19 18 16
37 34 23 32 42 48 56 67 75 66 74 77 82 90 94 92 82 76 66 57 57 86 98 98 99 93 52 40 39 57 58 33 19 44 36 44 40 37 29 24 21 24 22 18 17
40 38 28 44 51 59 62 75 79 80 85 95 97 96 99 95 91 83 75 62 65 81 99 98 99 98 66 72 56 66 57 40 22 38 54 49 43 35 31 27 27 23 23 19 17
39 41 40 39 48 57 63 68 92 79 88 97 97 89 96 97 98 98 91 83 75 85 93 98 88 96 96 72 81 62 56 46 37 38 49 47 46 39 38 34 26 22 20 21 20
38 45 48 48 51 56 64 67 85 76 82 82 84 83 100 96 98 97 98 98 99 90 96 98 100 98 100 88 75 63 58 57 54 46 47 49 45 44 42 36 28 21 20 23 22
41 44 51 55 57 59 67 70 77 82 79 84 91 77 92 97 98 98 98 97 99 96 98 97 99 96 98 90 67 60 56 58 55 54 52 52 44 45 42 33 26 22 21 22 24
45 47 50 56 60 60 67 72 78 79 97 98 91 90 99 95 94 97 91 98 98 100 88 96 98 97 87 80 38 49 52 56 56 52 51 51 37 40 33 23 22 19 19 22 26
46 49 53 56 60 61 66 71 82 85 90 98 99 100 100 93 98 98 93 98 92 84 99 98 98 88 85 80 55 43 47 52 54 51 46 43 30 23 24 19 19 21 22 24 26
45 49 50 55 58 65 68 70 81 86 93 96 90 98 94 99 99 93 98 94 82 70 91 93 96 97 79 70 56 45 40 44 48 52 40 32 28 22 18 21 21 18 20 20 20
43 48 48 53 60 61 67 82 84 89 90 96 97 93 98 100 96 100 98 97 99 97 97 97 86 94 74 60 51 40 31 36 34 37 29 29 29 18 17 19 19 20 19 20 21
38 48 48 54 59 64 66 78 80 86 90 95 98 95 96 82 78 96 99 99 98 88 86 98 95 95 66 58 52 36 28 23 28 27 25 27 21 15 15 17 16 18 19 21 21
33 44 48 54 57 65 70 76 78 76 94 92 97 99 99 90 70 77 94 98 97 98 88 96 95 84 76 62 50 42 36 30 29 29 38 26 24 14 14 12 12 15 16 18 21
32 36 49 53 55 65 73 76 85 86 92 94 98 99 93 97 99 78 90 100 99 96 100 95 86 76 75 70 58 53 40 45 52 52 62 29 28 15 16 14 12 14 16 20 22
19 34 46 51 50 57 63 69 88 94 98 97 98 98 97 100 100 80 84 94 90 85 95 95 84 64 61 62 55 51 35 38 59 68 61 39 30 16 16 18 19 19 19 17 15
15 27 42 49 49 55 65 62 77 93 92 96 95 96 98 98 97 96 98 95 83 76 66 86 69 65 60 56 55 50 39 33 31 47 50 38 25 20 18 18 18 20 20 17 15
15 20 34 48 53 56 62 65 71 76 84 87 87 92 96 94 94 95 94 90 76 64 60 61 64 64 61 57 57 51 43 39 36 56 43 46 32 20 19 20 20 20 23 24 22
16 18 23 40 49 50 59 70 73 84 89 91 85 86 83 84 77 79 85 86 74 65 55 53 54 63 58 54 52 49 46 36 40 38 61 48 27 20 19 20 20 26 25 20 17
15 18 18 26 37 44 47 64 76 88 90 83 79 81 78 75 72 68 79 74 82 71 61 53 50 58 55 49 46 45 44 38 33 38 50 42 30 23 18 18 22 24 24 21 21
16 17 17 19 26 41 42 45 58 74 85 73 67 79 81 78 73 66 70 69 66 63 67 63 50 57 54 48 40 40 38 39 34 31 39 47 26 26 27 26 26 26 24 24 27
24 18 18 19 17 24 30 43 51 52 63 78 72 69 69 66 68 69 62 65 62 62 64 62 46 42 46 40 38 35 34 28 32 30 26 28 24 23 31 28 27 23 21 26 30
37 23 20 18 17 20 21 23 34 49 57 64 70 70 67 65 62 65 63 61 61 59 57 59 57 44 39 35 31 29 28 27 25 26 25 21 18 16 20 25 26 25 23 24 22
39 36 28 27 18 21 22 22 23 24 31 47 60 61 68 65 61 54 53 57 62 57 54 53 52 45 48 44 37 31 29 29 25 23 24 24 20 18 16 19 21 24 24 23 24
27 40 41 41 28 23 24 21 22 23 24 23 30 46 64 63 56 52 49 56 58 48 51 44 44 44 43 39 41 37 27 19 22 24 22 21 19 18 15 12 16 21 28 31 30
Wind_Speed
21 24 21 21 22 20 21 22 21 24 28 29 28 27 29 32 29 29 29 31 29 28 28 27 31 30 33 39 44 46 35 39 39 39 35 34 32 33 30 26 25 24 25 22 18
20 21 21 20 22 23 24 24 25 27 27 31 24 24 26 27 26 28 26 31 29 35 22 32 30 31 33 38 44 46 45 38 35 33 37 34 34 33 32 29 26 24 25 20 19
19 21 21 20 21 23 24 24 25 26 22 21 21 18 19 18 22 25 27 30 29 36 28 27 30 30 32 37 45 47 41 34 34 31 34 32 34 32 31 27 23 19 20 19 20
20 21 20 20 21 23 24 24 23 21 20 18 16 13 13 15 17 24 26 28 29 39 31 31 33 33 32 39 44 40 43 37 26 29 33 32 32 33 27 21 21 20 20 18 19
19 19 20 19 18 20 22 24 23 20 19 15 13 11 14 16 21 16 19 30 28 38 38 36 42 33 33 37 42 38 39 33 26 29 32 32 33 31 26 20 20 23 21 20 19
17 18 18 15 16 17 19 20 23 20 16 11 9 11 13 18 17 21 26 22 30 40 36 26 25 28 30 31 39 32 26 25 28 30 32 33 33 30 25 21 21 22 23 21 19
16 16 16 13 16 19 22 25 24 18 10 8 10 13 17 21 23 22 25 26 28 37 37 29 29 30 25 25 36 21 22 22 29 31 34 34 30 28 24 22 22 22 22 20 19
18 17 16 15 17 20 23 26 27 13 7 5 9 11 10 12 2 8 22 23 31 36 39 24 37 32 21 26 31 23 22 25 29 32 37 36 34 30 25 22 22 22 22 20 18
19 19 20 19 18 20 22 23 23 9 4 4 7 9 9 9 11 6 7 21 16 32 35 27 34 32 27 32 34 27 22 26 29 34 38 37 33 31 27 23 23 22 20 18 17
21 21 22 22 21 19 20 21 17 11 5 6 7 7 7 4 7 3 8 15 13 21 21 31 35 31 32 37 30 30 25 23 26 30 33 35 23 31 26 22 23 22 21 18 16
22 22 22 22 21 18 17 16 13 10 7 3 5 6 7 1 5 3 6 7 12 10 18 29 12 29 34 39 39 32 20 23 25 27 29 29 18 27 24 21 23 22 21 18 16
22 23 23 22 19 15 14 11 9 11 12 8 5 5 3 3 5 7 12 13 9 7 34 7 12 24 30 28 26 28 19 21 25 27 24 27 18 17 23 20 19 19 18 17 18
21 23 22 21 17 14 11 11 8 9 10 9 8 2 1 5 5 8 12 11 8 8 14 14 17 19 24 23 23 24 24 23 24 24 17 20 18 18 20 22 22 21 20 20 20
20 22 20 21 16 12 8 10 8 7 5 10 8 4 3 7 6 9 7 12 12 16 15 15 22 18 20 18 21 28 26 24 19 24 10 20 6 20 20 20 21 20 18 17 17
19 19 19 20 16 10 7 6 5 5 4 8 8 3 4 4 8 9 7 10 9 14 15 5 25 16 19 17 18 19 27 21 23 21 13 16 5 13 25 23 21 20 20 19 19
17 17 19 18 15 12 4 6 6 3 3 7 5 2 4 2 10 10 10 13 10 11 13 20 14 18 18 14 12 21 25 21 18 16 5 11 14 12 17 26 24 23 23 23 24
15 16 17 18 14 11 10 8 2 4 5 5 6 8 6 5 6 10 9 16 9 9 15 17 11 12 16 13 8 24 28 7 3 1 4 12 14 11 16 18 24 25 25 25 24
14 16 15 15 14 13 10 5 8 5 3 7 10 15 13 8 7 7 7 9 6 9 18 10 4 11 12 16 11 27 15 8 6 4 4 11 9 10 19 18 21 22 22 21 20
14 13 13 12 10 11 11 5 4 3 8 8 10 10 9 13 12 13 11 13 12 22 2 8 6 10 18 17 14 28 9 5 9 7 4 7 8 14 19 20 22 22 21 19 17
12 11 11 9 9 9 9 4 5 7 4 4 5 7 7 10 7 6 4 15 15 8 9 12 7 11 15 12 15 21 17 4 3 4 3 4 7 12 21 24 22 19 18 17 15
10 10 10 7 6 7 5 4 7 3 4 4 3 5 5 5 3 4 2 19 13 8 6 14 12 11 14 9 15 14 20 2 3 1 4 3 6 13 17 18 20 20 18 16 15
8 8 9 6 5 5 4 3 1 1 3 1 3 3 1 2 2 2 8 5 17 6 2 4 8 13 13 7 12 13 15 15 1 2 2 2 2 8 15 16 20 18 17 16 16
7 8 7 7 4 4 3 3 1 1 1 3 3 0 1 1 1 2 6 8 12 3 6 8 3 10 4 8 12 15 16 18 16 4 3 3 2 4 13 17 18 16 16 17 16
6 6 7 6 6 4 4 2 2 1 2 5 5 5 5 6 5 3 8 11 12 4 4 5 6 5 13 11 12 17 21 17 19 10 5 6 4 6 5 11 13 14 15 15 15
6 5 6 6 5 4 4 3 1 1 2 4 5 6 4 4 4 6 11 12 15 9 4 5 2 5 4 5 9 13 17 23 22 23 15 13 12 8 4 3 8 12 13 14 14
6 6 5 6 5 4 4 3 2 1 2 4 4 6 5 4 2 4 9 10 13 14 9 6 5 4 7 7 7 9 14 19 24 25 28 27 24 17 12 12 11 11 14 15 15
6 5 5 5 5 4 4 4 3 2 2 2 3 3 4 4 2 6 7 13 9 10 15 11 10 6 4 8 9 15 19 19 25 28 27 29 22 20 17 18 15 15 16 18 19
Wind_Direction
341 340 332 328 321 315 313 315 315 309 304 301 293 279 264 253 250 240 239 236 231 213 216 218 214 212 210 207 202 199 201 212 215 213 209 208 201 197 197 202 212 217 222 222 222
339 338 335 331 321 315 317 320 319 316 310 304 295 281 259 249 247 244 233 230 233 211 214 206 213 212 211 207 202 200 207 210 214 217 211 209 203 201 200 204 215 220 219 216 204
342 340 339 328 314 314 320 323 323 322 322 313 304 278 256 250 245 240 229 225 228 211 220 215 209 213 211 208 204 201 210 204 211 212 208 209 202 200 203 206 213 219 213 205 203
347 340 341 324 318 323 325 324 322 325 326 320 308 275 257 244 234 239 227 220 223 209 219 208 205 207 208 208 205 206 207 205 203 208 205 202 201 197 202 207 204 193 194 201 198
345 343 338 326 328 331 329 326 322 324 326 323 312 269 257 251 246 245 231 222 221 210 209 218 206 202 206 208 204 205 208 205 199 203 200 196 198 199 197 196 199 194 186 183 188
340 341 337 334 340 342 341 333 330 320 321 334 328 315 271 249 245 240 237 226 224 209 219 196 204 199 206 210 203 205 205 206 199 197 196 193 195 195 198 198 198 192 193 189 191
339 333 334 331 340 342 341 336 330 318 311 335 334 323 282 254 249 246 239 233 219 212 216 208 185 190 204 199 199 192 198 199 199 193 189 189 195 202 204 200 197 197 194 194 196
341 325 317 322 332 333 336 335 337 325 282 320 328 326 342 342 275 243 235 220 206 206 214 173 185 183 193 187 182 188 188 189 194 192 192 190 197 201 205 202 198 196 195 192 196
341 327 315 313 319 327 335 334 336 335 287 303 315 328 343 347 36 50 128 184 180 202 216 184 171 176 181 183 175 179 180 183 184 189 190 193 201 202 203 203 201 201 198 196 199
342 331 322 316 314 321 332 340 338 340 324 333 325 325 339 3 76 52 129 165 189 206 198 180 178 177 180 180 179 184 181 178 176 182 190 191 202 201 205 207 201 201 200 200 199
343 338 329 323 321 322 330 342 348 358 0 12 358 317 328 46 97 51 120 121 124 169 200 186 181 172 176 189 188 185 181 174 166 172 181 183 189 201 204 201 199 200 202 203 206
346 343 336 330 325 323 333 340 3 13 16 23 5 5 348 159 131 122 125 160 128 185 167 217 126 165 175 187 188 182 172 169 171 173 176 184 186 185 199 200 200 203 204 206 212
344 345 342 338 329 328 341 328 333 332 350 7 358 1 300 137 136 137 133 151 167 168 208 175 129 154 165 177 178 179 180 169 173 169 174 182 200 198 194 198 204 206 208 212 219
349 349 345 344 339 337 347 338 336 311 324 10 13 6 138 122 133 160 115 133 148 172 186 166 170 155 161 169 178 174 180 187 169 173 162 178 206 210 210 205 207 204 207 211 220
353 357 350 349 349 350 354 349 354 341 4 344 5 29 122 143 158 174 147 139 143 176 188 164 154 174 166 162 173 176 177 185 198 205 196 196 219 214 218 217 214 212 217 223 231
354 359 358 356 358 4 339 358 347 318 324 4 11 63 104 135 182 177 195 153 161 152 176 148 146 175 184 175 159 164 162 169 179 192 208 204 206 227 219 223 220 223 229 232 237
352 356 359 2 356 348 354 345 359 49 354 36 64 95 128 156 137 160 183 143 145 131 141 153 133 172 190 190 179 157 149 111 73 173 209 193 200 215 209 216 218 223 228 232 237
346 356 3 5 6 359 7 14 56 42 53 99 74 94 93 124 121 158 174 144 155 97 135 129 136 158 177 190 182 167 163 155 157 172 194 177 214 216 228 218 214 219 224 227 230
344 349 4 9 13 4 358 32 67 95 118 88 64 43 52 84 101 113 132 153 148 152 155 149 151 174 171 191 181 186 180 144 115 125 133 187 217 217 214 217 214 216 221 225 228
340 341 357 10 23 24 30 68 108 115 92 19 34 83 58 62 59 93 124 152 145 139 140 149 144 176 170 182 190 192 184 153 142 125 184 232 235 215 216 214 214 215 219 224 229
330 333 345 357 12 14 15 77 143 124 354 358 51 125 77 55 93 113 116 161 142 118 104 154 163 175 173 183 194 185 203 203 127 123 151 143 235 217 222 217 217 214 216 221 225
321 327 336 343 349 356 24 42 338 235 90 80 137 106 81 39 4 46 152 169 183 95 141 107 160 163 185 187 195 208 213 219 258 191 149 172 257 215 208 203 206 214 219 221 225
323 308 327 338 338 358 18 34 64 357 169 135 170 199 230 270 340 103 163 163 156 177 132 206 172 130 190 219 206 215 223 228 237 279 219 152 290 234 207 201 203 210 215 219 221
329 310 309 320 331 343 340 4 22 314 248 224 213 227 270 294 289 219 182 176 167 178 155 150 165 187 197 200 207 218 224 227 230 237 237 242 307 11 214 216 216 217 218 220 224
333 315 320 314 322 320 338 340 306 260 251 220 225 226 255 292 280 218 198 190 198 207 213 200 222 197 171 184 216 230 233 229 235 236 242 262 262 276 270 246 229 225 227 231 239
324 323 321 313 309 307 321 317 316 292 237 239 249 245 257 270 260 200 199 200 194 211 216 217 230 233 232 249 255 251 235 233 238 240 243 249 260 260 253 242 247 254 246 244 251
307 316 318 324 318 307 300 301 299 290 273 257 233 218 235 235 240 206 204 187 201 210 217 225 223 222 228 238 263 274 251 247 243 245 247 249 257 261 260 263 267 270 259 253 260